Wind_Speed
47 47 47 46 46 46 45 45 47 52 59 66 68 68 68 67 66 64 61 58 55 53 53 52 51 50 48 44 41 38 35 32 30 30 28 27 27 25 24 23 21 19 21
52 54 54 55 53 51 50 49 48 48 50 56 63 69 72 72 71 70 68 65 62 59 57 56 54 53 51 48 45 41 38 34 31 30 29 28 28 26 25 25 23 20 22
57 58 59 60 60 58 56 53 51 51 50 51 53 59 68 74 76 75 73 72 69 66 62 60 58 57 55 52 49 45 41 37 33 30 29 27 27 27 26 25 23 21 21
62 64 64 64 63 62 60 56 53 51 50 50 51 52 56 64 73 78 77 76 74 72 70 66 61 59 56 54 52 48 45 40 36 32 30 28 28 27 26 24 22 21 21
65 67 66 66 64 63 59 55 52 50 49 49 48 49 50 51 57 67 75 77 76 75 73 71 66 61 57 55 54 51 47 43 38 34 31 29 28 27 26 24 22 20 21
66 66 65 63 61 59 55 52 49 48 48 47 47 46 45 44 44 49 57 67 74 76 75 73 71 67 61 56 54 52 50 45 41 36 33 30 29 28 26 24 22 20 21
64 62 60 58 56 53 51 49 47 45 46 47 47 46 44 42 40 38 39 46 56 66 73 74 72 69 65 60 56 53 51 47 43 39 34 32 30 28 26 24 22 21 21
61 61 60 57 54 52 49 46 44 43 45 47 49 47 45 43 40 38 36 36 39 47 58 67 72 71 66 62 58 54 51 48 44 41 37 34 31 29 26 23 21 20 20
63 63 60 56 51 47 43 42 41 41 42 46 49 50 48 45 43 40 39 37 35 36 41 51 61 67 68 65 60 54 51 48 46 43 39 35 32 30 27 23 21 19 19
62 60 56 49 44 38 34 32 33 35 37 43 48 49 50 48 45 42 40 37 35 34 34 38 46 55 63 65 61 56 51 49 47 44 40 37 34 31 27 23 21 20 21
61 58 52 45 39 32 27 25 26 30 34 38 43 47 48 48 47 44 41 38 35 33 32 32 36 43 53 60 60 57 53 50 47 44 41 38 35 32 28 25 23 23 23
58 54 48 42 34 27 23 20 20 22 28 32 38 44 47 48 46 44 42 38 35 32 31 30 31 35 43 53 58 57 54 51 47 44 41 39 36 33 30 27 25 24 24
55 50 45 40 32 25 19 15 13 14 18 26 32 38 42 44 45 43 41 37 34 32 31 28 27 30 37 47 53 55 54 51 46 42 41 39 37 35 32 28 25 24 23
52 48 44 38 32 24 18 14 9 8 12 18 24 32 38 41 41 41 39 35 32 31 30 28 26 27 34 43 50 52 51 49 45 42 41 41 38 35 32 28 25 24 23
49 47 43 39 33 27 20 15 10 5 4 10 16 22 28 33 37 38 35 34 32 31 29 28 26 26 33 43 49 48 47 47 45 43 42 41 38 35 32 29 26 25 23
47 46 42 38 33 29 24 18 13 7 2 3 10 15 21 26 29 31 31 32 33 31 28 26 25 28 36 46 49 48 47 47 44 43 42 41 39 35 32 30 27 25 23
44 43 41 38 34 30 27 22 16 11 5 1 6 11 16 21 24 26 28 30 30 28 27 25 25 31 41 49 51 49 48 46 43 42 42 41 39 36 33 31 28 25 23
43 41 39 37 34 30 28 24 20 15 10 6 6 9 13 18 21 23 25 26 27 26 25 23 25 33 44 50 53 50 48 45 43 41 40 40 38 36 34 32 29 27 24
42 40 38 36 34 30 27 24 21 18 14 11 9 9 12 15 18 21 23 23 23 22 21 20 24 31 42 49 51 50 49 45 42 40 40 40 38 37 35 33 30 28 25
39 38 37 34 32 30 27 23 20 17 15 13 10 10 11 13 16 19 20 20 20 19 18 18 20 28 37 46 48 48 47 43 40 39 38 40 38 36 35 33 31 29 27
38 36 35 33 31 28 26 23 19 15 13 11 9 8 9 10 12 14 16 16 17 16 16 17 19 26 32 42 45 47 46 43 40 38 37 37 36 35 34 32 31 29 27
35 33 32 32 30 27 25 23 19 15 12 10 8 7 7 9 10 11 13 14 14 15 16 16 19 22 28 37 44 45 43 41 40 39 37 35 34 33 31 30 28 27 27
32 31 30 29 28 27 25 23 21 17 14 11 9 8 8 8 9 9 11 13 14 15 16 18 18 23 29 37 41 41 39 38 38 37 34 33 31 30 29 28 27 27 27
30 29 28 28 27 26 25 23 21 19 16 14 12 10 10 10 10 11 13 14 15 17 19 21 23 26 30 34 36 37 36 36 35 33 32 31 29 29 28 27 26 26 25
27 27 26 26 25 24 22 22 21 21 20 19 17 15 15 15 14 15 17 18 19 21 23 25 27 29 31 32 33 33 33 32 31 31 30 29 28 27 26 24 23 22 22
23 24 25 25 24 23 21 20 20 20 20 20 20 20 20 19 19 20 21 22 23 24 25 27 29 31 31 31 31 31 30 29 29 28 27 25 24 24 23 22 21 20 20
Wind_Direction
309 307 304 301 297 292 287 280 271 263 256 252 248 246 244 243 241 239 238 239 239 238 239 240 240 240 239 239 240 241 243 247 253 258 260 261 263 267 273 281 284 268 248
310 307 304 301 297 293 288 282 276 270 263 256 251 247 244 242 241 239 236 236 237 237 237 239 240 241 240 239 239 239 241 244 249 255 259 260 260 262 269 277 282 269 248
308 305 302 299 296 293 289 283 276 270 264 260 256 251 246 242 240 239 237 236 235 235 236 238 239 240 239 239 238 238 239 241 245 252 257 258 257 259 265 274 280 270 250
307 305 302 299 295 292 288 283 276 269 263 258 255 252 250 246 242 239 237 236 235 236 236 236 235 235 237 238 238 237 238 240 244 249 254 255 254 255 261 270 276 268 251
308 306 303 300 297 292 288 281 274 267 260 254 250 248 247 247 245 243 240 238 236 235 235 235 235 235 234 235 237 237 237 239 242 246 249 250 250 252 258 266 271 267 253
311 308 305 302 298 293 287 279 272 263 254 247 244 241 241 242 243 245 244 241 238 236 234 234 235 235 233 233 234 236 236 237 240 243 244 245 247 250 255 262 266 265 255
314 311 308 305 299 293 286 279 270 261 250 242 237 236 236 237 239 241 242 242 241 240 237 234 234 234 234 233 233 233 234 235 236 238 239 240 243 246 251 257 261 262 256
318 315 311 306 300 292 285 277 268 260 249 239 233 232 233 235 237 239 241 242 241 240 240 238 235 233 233 233 231 231 231 232 233 234 234 235 239 242 246 252 256 257 254
323 320 315 310 304 296 287 276 266 257 247 237 231 229 230 232 235 239 242 242 240 239 239 239 237 235 232 230 230 229 228 228 228 229 229 230 233 236 240 245 248 250 249
330 327 323 318 313 305 292 278 265 253 245 235 229 227 227 230 233 237 241 242 241 238 237 236 236 235 232 229 228 227 226 224 224 225 224 225 227 230 233 237 240 242 241
337 335 331 326 321 313 302 285 267 253 243 235 228 225 225 228 231 234 238 240 239 237 234 233 231 231 230 228 225 223 222 221 220 220 220 220 222 224 226 228 231 233 237
343 342 341 337 331 324 315 299 276 257 240 232 227 222 222 225 228 230 233 235 235 234 231 229 228 227 224 222 220 219 218 218 217 217 216 215 217 219 220 222 226 230 234
351 351 351 349 345 339 332 318 291 262 239 230 225 222 222 223 224 226 228 231 233 230 225 223 225 223 218 214 213 212 213 213 213 213 212 211 212 214 216 218 223 227 230
358 359 359 360 359 355 349 343 323 278 243 230 223 221 220 221 222 222 224 226 226 220 218 219 222 220 213 206 204 204 206 208 209 209 208 207 209 211 212 213 217 222 225
1 4 5 7 8 8 8 4 358 340 262 225 216 214 214 216 217 217 217 218 215 213 214 218 220 218 205 195 193 195 200 204 205 206 205 205 206 208 208 208 211 215 219
3 7 9 12 15 17 17 18 18 15 11 209 207 206 207 206 207 209 210 210 210 211 213 216 218 210 194 187 186 189 195 199 201 204 204 203 203 205 205 205 206 209 212
5 8 11 15 18 20 22 23 25 29 36 117 183 189 193 195 198 200 202 204 205 208 211 216 215 204 188 182 182 186 191 194 198 202 202 199 199 202 202 201 202 205 206
5 8 12 15 18 21 24 27 31 39 52 75 127 160 176 184 189 192 194 197 199 204 209 214 209 201 187 182 179 182 186 191 195 199 200 197 197 199 199 198 199 202 203
6 8 11 14 17 20 24 28 35 44 56 70 96 131 155 168 177 183 186 191 196 200 203 204 203 199 188 182 179 179 184 188 192 197 198 197 196 197 197 196 198 200 203
7 9 12 15 18 23 25 28 35 43 55 66 84 113 140 158 169 177 183 189 193 196 198 196 197 196 189 181 179 179 182 185 190 194 196 195 194 196 196 197 199 203 207
8 12 15 17 19 22 25 28 34 43 54 63 81 105 128 147 160 172 182 186 188 190 191 189 190 188 187 182 178 178 181 185 189 192 193 192 193 195 198 200 203 206 210
8 12 16 18 20 23 27 30 34 42 51 60 79 103 124 142 155 167 176 179 180 182 184 186 185 184 181 179 176 176 180 185 189 190 191 193 195 198 201 204 207 209 212
8 12 17 20 21 25 29 33 36 42 49 60 76 96 113 129 145 158 166 171 174 173 174 174 172 172 173 176 176 177 181 185 189 190 193 194 198 202 205 207 209 211 213
9 13 17 20 23 26 31 36 41 45 50 60 73 91 108 120 131 140 147 154 157 158 157 157 158 161 167 171 174 176 180 183 186 189 193 197 202 205 208 210 212 213 215
9 14 18 21 24 28 32 39 46 52 58 65 74 86 100 110 120 129 135 138 141 143 147 150 154 160 165 168 172 177 180 183 186 190 195 201 205 208 210 212 214 215 218
7 13 19 23 26 30 35 42 50 57 63 70 79 88 97 106 112 117 125 131 135 139 144 149 153 157 162 167 171 177 183 188 191 195 199 204 208 210 212 213 215 218 222
Height
5699 5695 5692 5688 5684 5681 5679 5677 5676 5675 5675 5676 5679 5682 5685 5690 5695 5701 5705 5710 5714 5720 5726 5731 5736 5741 5746 5750 5755 5760 5763 5765 5767 5768 5770 5771 5772 5773 5772 5771 5771 5770 5772
5683 5677 5672 5668 5665 5662 5659 5657 5655 5655 5654 5654 5656 5659 5663 5667 5673 5680 5686 5692 5697 5704 5710 5717 5722 5727 5733 5738 5744 5749 5753 5756 5759 5760 5761 5763 5765 5766 5766 5765 5764 5764 5765
5668 5660 5654 5647 5642 5639 5636 5634 5633 5633 5633 5633 5634 5636 5640 5644 5650 5657 5665 5673 5680 5687 5694 5701 5707 5713 5719 5725 5731 5737 5742 5747 5750 5752 5753 5755 5757 5759 5759 5759 5758 5757 5759
5650 5641 5633 5626 5620 5615 5612 5610 5609 5609 5610 5612 5614 5616 5619 5622 5628 5634 5643 5651 5659 5668 5676 5684 5690 5696 5704 5711 5718 5725 5731 5736 5740 5743 5745 5747 5750 5751 5752 5752 5751 5751 5752
5632 5621 5611 5602 5595 5590 5587 5585 5584 5585 5587 5590 5594 5597 5600 5603 5608 5613 5621 5629 5638 5648 5657 5665 5672 5680 5689 5697 5704 5712 5719 5725 5730 5734 5737 5740 5742 5744 5745 5745 5745 5745 5745
5614 5602 5590 5580 5572 5566 5562 5560 5561 5562 5565 5569 5574 5579 5583 5588 5591 5596 5602 5610 5618 5627 5637 5646 5655 5664 5673 5682 5690 5699 5706 5714 5720 5725 5729 5732 5734 5736 5738 5739 5739 5739 5740
5596 5583 5570 5559 5551 5544 5540 5538 5539 5541 5544 5550 5556 5562 5568 5573 5578 5582 5587 5593 5600 5609 5618 5628 5638 5648 5657 5667 5676 5684 5693 5702 5709 5715 5720 5723 5726 5729 5731 5732 5732 5733 5734
5578 5564 5551 5540 5530 5523 5519 5517 5518 5520 5525 5532 5539 5546 5553 5559 5565 5570 5575 5581 5587 5593 5601 5610 5620 5631 5641 5652 5662 5671 5681 5690 5698 5705 5711 5715 5718 5722 5724 5725 5726 5727 5728
5561 5546 5530 5518 5508 5502 5498 5496 5498 5501 5506 5513 5522 5530 5539 5546 5552 5558 5564 5570 5576 5582 5588 5595 5604 5614 5626 5638 5649 5660 5669 5679 5686 5694 5701 5706 5710 5714 5717 5719 5720 5722 5724
5546 5528 5512 5499 5490 5483 5480 5479 5480 5484 5490 5497 5506 5515 5524 5533 5540 5547 5553 5559 5565 5571 5577 5583 5591 5599 5609 5622 5635 5647 5658 5668 5675 5683 5691 5697 5702 5706 5709 5713 5715 5718 5719
5534 5516 5500 5487 5478 5471 5468 5467 5467 5471 5476 5483 5492 5501 5510 5520 5529 5536 5542 5548 5555 5561 5567 5572 5578 5585 5596 5609 5622 5635 5646 5656 5665 5673 5681 5688 5693 5698 5702 5706 5710 5713 5715
5527 5509 5494 5481 5471 5465 5461 5459 5459 5460 5465 5472 5480 5489 5498 5508 5517 5525 5531 5538 5545 5551 5558 5563 5568 5574 5583 5596 5609 5623 5635 5646 5655 5664 5672 5679 5686 5691 5696 5699 5703 5707 5710
5523 5507 5492 5479 5469 5462 5458 5455 5455 5456 5459 5464 5471 5479 5488 5497 5506 5515 5522 5529 5536 5543 5549 5555 5560 5565 5573 5584 5597 5611 5624 5636 5646 5655 5664 5671 5677 5683 5688 5693 5697 5701 5704
5522 5507 5493 5481 5471 5463 5458 5455 5454 5454 5456 5460 5465 5472 5479 5488 5496 5505 5513 5521 5528 5535 5541 5547 5552 5557 5564 5574 5588 5602 5615 5628 5638 5647 5655 5662 5669 5676 5682 5687 5692 5696 5699
5524 5509 5496 5485 5475 5467 5461 5458 5456 5455 5456 5458 5462 5467 5474 5481 5489 5497 5506 5514 5521 5528 5534 5540 5545 5551 5557 5568 5581 5595 5608 5619 5629 5638 5647 5655 5663 5669 5675 5680 5686 5690 5694
5527 5514 5501 5490 5481 5473 5467 5463 5460 5458 5458 5459 5462 5466 5471 5477 5484 5492 5500 5508 5515 5522 5529 5535 5539 5544 5551 5562 5575 5588 5600 5612 5622 5632 5640 5648 5656 5663 5669 5674 5680 5684 5688
5531 5519 5507 5497 5487 5480 5474 5469 5465 5463 5461 5462 5464 5467 5471 5477 5483 5490 5497 5504 5511 5518 5525 5530 5534 5539 5546 5557 5569 5582 5594 5606 5616 5625 5634 5642 5650 5657 5663 5669 5674 5679 5684
5534 5524 5513 5504 5495 5487 5481 5475 5471 5468 5466 5466 5467 5470 5473 5478 5483 5489 5496 5503 5509 5516 5521 5525 5530 5534 5541 5551 5564 5576 5588 5599 5610 5620 5628 5636 5644 5652 5658 5664 5669 5674 5679
5538 5528 5519 5510 5502 5494 5488 5483 5478 5475 5473 5472 5473 5474 5477 5481 5485 5491 5497 5503 5509 5514 5519 5523 5527 5532 5539 5548 5560 5572 5584 5595 5606 5615 5624 5633 5640 5647 5653 5659 5664 5669 5674
5543 5533 5524 5516 5508 5501 5495 5490 5486 5483 5480 5479 5479 5481 5483 5486 5489 5493 5498 5504 5509 5513 5518 5522 5526 5531 5537 5547 5558 5570 5582 5593 5603 5612 5621 5629 5637 5643 5649 5655 5660 5665 5669
5548 5539 5530 5521 5514 5507 5502 5497 5492 5489 5487 5486 5486 5486 5488 5490 5493 5496 5500 5504 5508 5513 5517 5522 5527 5532 5539 5547 5558 5570 5581 5592 5602 5610 5619 5626 5634 5640 5646 5651 5656 5660 5665
5552 5544 5536 5528 5520 5514 5508 5503 5498 5495 5493 5491 5491 5491 5492 5493 5496 5498 5501 5505 5509 5513 5517 5522 5528 5534 5541 5549 5559 5571 5582 5592 5601 5610 5617 5625 5632 5638 5643 5648 5652 5657 5661
5557 5549 5542 5534 5527 5520 5514 5509 5504 5501 5498 5496 5495 5495 5495 5497 5498 5500 5503 5506 5509 5513 5518 5523 5529 5536 5543 5552 5562 5573 5583 5593 5601 5609 5617 5624 5630 5635 5640 5644 5649 5653 5657
5561 5554 5547 5540 5534 5527 5522 5516 5511 5507 5504 5501 5500 5499 5499 5500 5502 5503 5505 5508 5511 5516 5521 5527 5533 5540 5548 5558 5567 5576 5585 5593 5601 5609 5616 5622 5627 5632 5637 5641 5646 5650 5654
5564 5558 5552 5546 5540 5534 5529 5524 5519 5515 5511 5508 5506 5505 5505 5505 5506 5508 5510 5513 5517 5521 5526 5532 5539 5547 5555 5563 5571 5579 5587 5594 5602 5608 5614 5619 5624 5629 5634 5638 5643 5647 5650
5567 5562 5557 5551 5546 5541 5536 5532 5528 5524 5520 5517 5515 5514 5513 5513 5514 5515 5518 5521 5524 5528 5534 5539 5546 5553 5561 5568 5575 5582 5589 5596 5602 5608 5613 5618 5622 5627 5631 5636 5640 5643 5647